DELTA 1 DEB

Satellite information

Favourite Embed

Satellite Type and Status

DEBRISIN ORBIT

Key statistics

Satellite DELTA 1 DEB at a glance.

Uptime

17451

Days in orbit

Revolutions

≈ 14.2

Per day

Orbit

SSO

Sun Synchronous Orbit

Inclination

98.9

Latest

Satellite identification and parameters

Extended collection of information and parameters for DELTA 1 DEB.

Object identification

Identified? True

Debris? True

Object name: DELTA 1 DEB

International designator: 1978-026GD

Object number (NORAD): 14463

Object ID (CCSDS): 14463

Country: UNITED STATES OF AMERICA (US)

Current information (Y/N): Y

RCS size: SMALL

Orbital parameters

Period: 101.564 minutes

Inclination: 98.8883 deg

SMA: 7210.838 km

Apoapsis: 918.281 km

Periapsis: 747.125 km

RAAN: 237.3345 deg

Eccentricy: 0.01186796

Argument of periapsis: 189.8909 deg

Mean anomaly: 200.3147 deg

Mean motion: 14.17829967 rev/day

Mean motion (dot): 0.00001923 rev/day2

B* drag term: 0.00089922514 1/REarth

Two-line elements (TLE)

Creation date: Dec. 14, 2025, 3:07 a.m.

Reference frame: TEME

Reference center: EARTH

Epoch: Dec. 13, 2025, 3:38 p.m. UTC

TLE line 0: 0 DELTA 1 DEB

TLE line 1: 1 14463U 78026GD 25347.65197475 .00001923 00000-0 89923-3 0 9995

TLE line 2: 2 14463 98.8883 237.3345 0118680 189.8909 200.3147 14.17829967271662

Live tracking on map

Real-time ground track for satellite DELTA 1 DEB.

In-orbit conjunctions

A list of the most updated potential collisions computed for object DELTA 1 DEB.

Target Orbit TCA Probability of collision Miss distance Type
SL-3 R/B LEO 2025-05-30 16:23:39 0.0001004496 194.0 (m) ROCKET BODY
CZ-4 DEB SSO 2025-01-28 08:27:05 0.0002547938 100.0 (m) DEBRIS
CZ-6A DEB SSO 2024-06-13 10:26:18 0.0002788645 117.0 (m) DEBRIS

Associated space launch

Earth observation satellite

DELTA 1 DEB was lifted into orbit during the mission ‘Delta 2910 | Landsat 3’, on board a Delta 2910 space rocket.

The launch took place on March 5, 1978, 5:54 p.m. from Space Launch Complex 2W.

For more information about the launch, click the button.

Launch to space Delta 2910 | Landsat 3
Delta 2910 | Landsat 3

Agency: N/A

Status: Launch Successful

Launch date: March 5, 1978, 5:54 p.m. UTC

Rocket: Delta 2910

Launch pad: Space Launch Complex 2W

Location: Vandenberg SFB, CA, USA

...

Latest news about this satellite

There are no fresh news available about this satellite. Check back as we update our databases every day.


Newsletter sign-up

Weekly statistics, charts and insights to help you stay on top of the space industry.